Back to catalog

COSMOS 2251 DEB

AliveLEO
NORAD 34635·DEBRIS·🇷🇺 Russia

Launched Jun 16, 1993 from Plesetsk Cosmodrome

Loading…

Next Passes (next 24 hours)

TLE

FreshSource: Space-Track

Epoch: Sep 14, 2026, 11:29 UTC

1 34635U 93036XG  26257.47892416  .00003706  00000-0  59863-3 0  9995
2 34635  74.0411 256.2576 0032127 256.0911 260.2028 14.71413914772711

Track COSMOS 2251 DEB in real time with AllMySat

Download on the App Store